Starlink 5887

operational
NORAD ID: 56349 Int'l Des: 2023-058 Owner: SPXS Country: US Constellation: starlink
LEOCIRCULARRETROGRADESSO

Starlink 5887について

説明を読み込み中...

リアルタイム位置

3D地球を読み込み中...

次回通過

高度履歴

Altitude vs Time

uPlot chart will show altitude changes over time

軌道要素

1 56349U 23058AJ 25304.25483501 .00003141 00000-0 24904-3 0 9998
2 56349 97.6008 303.5325 0001974 88.2948 271.8503 15.01254842138718
Epoch: Oct 31, 2025 • Age: 6 hours

現在のステータス

高度 592.0 km
速度 7.56 km/s
衛星直下点 -77.14°S, 116.87°E
打ち上げ日 Apr 27, 2023
運用期間 2.5 years
タイプ internet

技術仕様

分類 Payload
質量 300.00 kg
乾燥質量 260.00 kg
総質量 300.00 kg
長さ 0.20 m
直径 2.80 m
スパン 9.00 m
形状 Box + pan
製造者 SPXS
バスタイプ Starlink
フェーズステータス In Orbit
所有者/国 SPXS/US

大規模コンステレーション

Loading constellations...